Regional Weather Roundup
Issued by NWS

Home | Current Version | Previous Version | Text Only | Print | Product List | Glossary On
Versions: 1 2 3 4 5 6 7 8 9 10 11 12 13 14 15 16 17 18 19 20 21 22 23 24 25 26 27
000
ASUS45 KBOU 251507
RWRCO

WEATHER ROUNDUP FOR COLORADO
NATIONAL WEATHER SERVICE DENVER/BOULDER CO
900 AM MDT SAT OCT 25 2014

NOTE: "FAIR" INDICATES FEW OR NO CLOUDS BELOW 12000 FEET WITH NO
SIGNIFICANT WEATHER AND/OR OBSTRUCTIONS TO VISIBILITY.

COZ001>005-013-030-031-251600-
...NORTHWEST COLORADO...

CITY           SKY/WX    TMP DP  RH WIND       PRES   REMARKS
CRAIG          SUNNY     38  30  73 W6        30.31S
HAYDEN         SUNNY     43  25  49 E13       30.32F
MEEKER         SUNNY     44  29  55 CALM      30.32S
MOUNT WERNER   NOT AVBL
STEAMBOAT SPGS SUNNY     36  25  64 CALM      30.36S
WALDEN         SUNNY     39  23  52 SE7       30.40F
$$

COZ006>008-011-251600-
...WEST CENTRAL VALLEYS...

CITY           SKY/WX    TMP DP  RH WIND       PRES   REMARKS
GRAND JUNCTION SUNNY     49  32  52 SE15      30.27R
MONTROSE       SUNNY     47  28  47 S6        30.34R
EAGLE          SUNNY     32  28  86 CALM      30.45S
RIFLE          SUNNY     40  31  70 CALM      30.33S
DELTA          SUNNY     44  32  62 CALM      30.33R
NUCLA          SUNNY     45  25  45 CALM      30.38R
$$

COZ017>023-064>068-251600-
...SOUTHWEST COLORADO...

CITY           SKY/WX    TMP DP  RH WIND       PRES   REMARKS
DURANGO        SUNNY     43  34  70 CALM      30.38R
CORTEZ         SUNNY     43  29  57 CALM      30.34R
PAGOSA SPRINGS SUNNY     47  33  58 CALM      30.43S HAZE
TELLURIDE      SUNNY     45  15  30 E3        30.51R
WOLF CREEK PAS SUNNY     45   5  19 SW8         N/A
$$

COZ009-010-012-014-032>034-037-058>063-251600-
...CENTRAL COLORADO...

CITY           SKY/WX    TMP DP  RH WIND       PRES   REMARKS
ASPEN          SUNNY     42  21  43 CALM      30.41S
BUENA VISTA    SUNNY     43  18  37 N5        30.46S
COPPER MTN     SUNNY     48  -6  10 S6        30.64S
BERTHOUD PASS  FAIR      36  32  87 NW15      30.67R
COTTONWOOD PAS SUNNY     52   3  14 S3        30.53R
GUNNISON       MOSUNNY   27  18  69 CALM      30.53R
KREMMLING      SUNNY     30  25  80 CALM        N/A
LEADVILLE      SUNNY     34  14  43 CALM      30.52S
MONARCH PASS   SUNNY     39  18  41 W14       30.74S
SALIDA         SUNNY     45  20  37 W6        30.53R
SUNLIGHT       SUNNY     45  18  33 CALM      30.57S
WILKERSON PASS NOT AVBL
$$

COZ069>075-251600-
...SAN LUIS VALLEY/SANGRE DE CRISTO MOUNTAINS...

CITY           SKY/WX    TMP DP  RH WIND       PRES   REMARKS
ALAMOSA        MOSUNNY   37  25  61 SW3       30.44R
LA VETA PASS   MOSUNNY   46  21  36 S5        30.54R
SAGUACHE       MOSUNNY   45  23  42 NW12      30.46R
$$

COZ035-036-038>040-251600-
...NORTHERN COLORADO FRONT RANGE...

CITY           SKY/WX    TMP DP  RH WIND       PRES   REMARKS
DENVER INTL AP MOSUNNY   58  23  26 SW15      30.26R
DMNS CITY PARK   N/A     57  24  28 S7        30.26S
AURORA         MOSUNNY   57  24  27 S9        30.28R
FRONT RANGE AP SUNNY     61  27  27 S9        30.27R
ERIE MUNI ARPT SUNNY     52  31  44 CALM      30.25S
BOULDER MUN AP SUNNY     57  28  33 CALM      30.25R
CENTENNIAL     SUNNY     58  28  32 S6        30.29R
BROOMFIELD     SUNNY     61  28  29 CALM      30.27
FORT COLLINS   SUNNY     48  30  49 S3        30.25R
LONGMONT       SUNNY     54  32  44 CALM      30.26R
$$

COZ041-046-047-076>085-087-088-251600-
...PIKES PEAK/PALMER DIVIDE AND SOUTHERN FOOTHILLS...

CITY           SKY/WX    TMP DP  RH WIND       PRES   REMARKS
COLO. SPRINGS  SUNNY     62  21  20 CALM      30.31R
A. F. ACADEMY  SUNNY     56  19  23 N9        30.32R
ELLICOTT       NOT AVBL
FALCON         SUNNY     64  14  14 N7        30.34R
FORT CARSON    SUNNY     61  23  23 NW3       30.28R
LIMON          SUNNY     56  28  34 W10       30.26R
MONUMENT HILL  SUNNY     59  18  20 NW5       30.34R
TRINIDAD       SUNNY     58  26  29 W14       30.27R
$$

COZ042>045-048>051-090-091-251600-
...NORTHEAST COLORADO...

CITY           SKY/WX    TMP DP  RH WIND       PRES   REMARKS
GREELEY ARPT   SUNNY     45  32  61 W3        30.24R
AKRON          SUNNY     53  30  41 W14       30.20R
BURLINGTON     SUNNY     59  32  36 NW12      30.18R
WRAY           SUNNY     55  32  41 W3        30.17R
STERLING       SUNNY     46  36  66 SW7       30.19R
HOLYOKE        SUNNY     54  34  47 NW3       30.18R
FORT MORGAN    SUNNY     53  29  39 W12       30.20F
$$

COZ086-089-092>099-251600-
...SOUTHEAST COLORADO...

CITY           SKY/WX    TMP DP  RH WIND       PRES   REMARKS
PUEBLO         SUNNY     57  28  33 W9        30.22R
LA JUNTA       SUNNY     58  29  33 W10       30.19R
LAMAR          SUNNY     56  34  43 W9        30.15R
SPRINGFIELD      N/A     68  32  26 NW13      30.17R
$$



USA.gov is the U.S. government's official web portal to all federal, state and local government web resources and services.